• In Deutschland
  • Länderverzeichnis
  • Für 7 Tage
  • Wassertemperatur
  • Satellitenkarten
  • Wetterkarte
  • Widgets
  • user-avatar
    Anmelden

    Stündliche Wetter Gjirokaster

    Heute, 26 Juni, Montag

    Zeit Temperatur Niederschläge Wind Luftdruck Luftfeuchtigkeit
    00:00 +16°C° 0,2 mm 1 m/S 652 mmHg 80%
    01:00 +15°C° 0 mm 1 m/S 651 mmHg 83%
    02:00 +15°C° 0,2 mm 1 m/S 651 mmHg 84%
    03:00 +15°C° 0,2 mm 1 m/S 651 mmHg 86%
    04:00 +14°C° 0,2 mm 1 m/S 651 mmHg 87%
    05:00 +18°C° 0,1 mm 1 m/S 651 mmHg 79%
    06:00 +20°C° 0,1 mm 1 m/S 652 mmHg 71%
    07:00 +23°C° 0 mm 1 m/S 653 mmHg 61%
    08:00 +24°C° 0,2 mm 1 m/S 653 mmHg 55%
    09:00 +25°C° 0,2 mm 1 m/S 653 mmHg 49%
    10:00 +26°C° 0,2 mm 2 m/S 653 mmHg 43%
    11:00 +27°C° 0,2 mm 2 m/S 653 mmHg 43%
    12:00 +27°C° 0,2 mm 2 m/S 653 mmHg 42%
    13:00 +27°C° 0,2 mm 2 m/S 653 mmHg 42%
    14:00 +27°C° 0,5 mm 2 m/S 653 mmHg 44%
    15:00 +26°C° 0,5 mm 2 m/S 653 mmHg 46%
    16:00 +26°C° 0,5 mm 2 m/S 653 mmHg 48%
    17:00 +24°C° 0,1 mm 2 m/S 652 mmHg 56%
    18:00 +20°C° 0,1 mm 2 m/S 652 mmHg 64%
    19:00 +19°C° 0,1 mm 1 m/S 651 mmHg 71%
    20:00 +18°C° 0,1 mm 1 m/S 651 mmHg 75%
    21:00 +16°C° 0,1 mm 1 m/S 651 mmHg 79%
    22:00 +15°C° 0,1 mm 1 m/S 651 mmHg 83%
    23:00 +14°C° 0 mm 1 m/S 651 mmHg 83%

    Morgen, 27 Juni, Dienstag

    Zeit Temperatur Niederschläge Wind Luftdruck Luftfeuchtigkeit
    00:00 +14°C° 0 mm 1 m/S 651 mmHg 84%
    01:00 +13°C° 0 mm 1 m/S 651 mmHg 85%
    02:00 +13°C° 0 mm 1 m/S 651 mmHg 85%
    03:00 +13°C° 0 mm 1 m/S 651 mmHg 85%
    04:00 +13°C° 0 mm 1 m/S 650 mmHg 85%
    05:00 +15°C° 0 mm 1 m/S 651 mmHg 75%
    06:00 +19°C° 0 mm 1 m/S 652 mmHg 65%
    07:00 +22°C° 0 mm 1 m/S 653 mmHg 55%
    08:00 +23°C° 0 mm 1 m/S 653 mmHg 49%
    09:00 +25°C° 0 mm 1 m/S 654 mmHg 44%
    10:00 +26°C° 0 mm 2 m/S 654 mmHg 38%
    11:00 +27°C° 0 mm 2 m/S 654 mmHg 36%
    12:00 +27°C° 0 mm 3 m/S 654 mmHg 34%
    13:00 +28°C° 0 mm 3 m/S 654 mmHg 32%
    14:00 +27°C° 0 mm 3 m/S 653 mmHg 34%
    15:00 +27°C° 0 mm 3 m/S 653 mmHg 35%
    16:00 +26°C° 0 mm 2 m/S 653 mmHg 36%
    17:00 +24°C° 0 mm 2 m/S 652 mmHg 45%
    18:00 +20°C° 0 mm 2 m/S 652 mmHg 54%
    19:00 +18°C° 0 mm 2 m/S 651 mmHg 63%
    20:00 +16°C° 0 mm 1 m/S 651 mmHg 67%
    21:00 +15°C° 0 mm 1 m/S 651 mmHg 71%
    22:00 +14°C° 0 mm 1 m/S 651 mmHg 76%
    23:00 +14°C° 0 mm 1 m/S 651 mmHg 76%

    übermorgen, 28 Juni, Mittwoch

    Zeit Temperatur Niederschläge Wind Luftdruck Luftfeuchtigkeit
    00:00 +14°C° 0 mm 1 m/S 651 mmHg 76%
    01:00 +14°C° 0 mm 2 m/S 650 mmHg 76%
    02:00 +14°C° 0 mm 2 m/S 650 mmHg 75%
    03:00 +14°C° 0 mm 2 m/S 650 mmHg 75%
    04:00 +14°C° 0 mm 2 m/S 650 mmHg 75%
    05:00 +16°C° 0 mm 2 m/S 650 mmHg 67%
    06:00 +18°C° 0 mm 2 m/S 651 mmHg 59%
    07:00 +21°C° 0 mm 2 m/S 652 mmHg 50%
    08:00 +24°C° 0 mm 3 m/S 652 mmHg 46%
    09:00 +25°C° 0 mm 3 m/S 653 mmHg 41%
    10:00 +27°C° 0 mm 3 m/S 653 mmHg 36%
    11:00 +27°C° 0 mm 3 m/S 653 mmHg 35%
    12:00 +27°C° 0 mm 3 m/S 653 mmHg 35%
    13:00 +28°C° 0 mm 3 m/S 653 mmHg 34%
    14:00 +27°C° 0 mm 3 m/S 652 mmHg 36%
    15:00 +27°C° 0 mm 3 m/S 652 mmHg 38%
    16:00 +26°C° 0 mm 3 m/S 652 mmHg 40%
    17:00 +24°C° 0 mm 2 m/S 652 mmHg 49%
    18:00 +20°C° 0 mm 2 m/S 651 mmHg 59%
    19:00 +19°C° 0 mm 1 m/S 650 mmHg 68%
    20:00 +17°C° 0 mm 2 m/S 650 mmHg 71%
    21:00 +16°C° 0 mm 2 m/S 650 mmHg 73%
    22:00 +15°C° 0 mm 2 m/S 650 mmHg 76%
    23:00 +15°C° 0 mm 2 m/S 650 mmHg 76%

    29 Juni, Donnerstag

    Zeit Temperatur Niederschläge Wind Luftdruck Luftfeuchtigkeit
    00:00 +15°C° 0 mm 2 m/S 650 mmHg 75%
    01:00 +15°C° 0 mm 2 m/S 650 mmHg 74%
    02:00 +15°C° 0 mm 2 m/S 650 mmHg 73%
    03:00 +14°C° 0 mm 3 m/S 650 mmHg 71%
    04:00 +14°C° 0 mm 3 m/S 650 mmHg 70%
    05:00 +17°C° 0 mm 3 m/S 651 mmHg 61%
    06:00 +20°C° 0 mm 3 m/S 652 mmHg 52%
    07:00 +24°C° 0 mm 3 m/S 652 mmHg 44%
    08:00 +26°C° 0 mm 4 m/S 653 mmHg 39%
    09:00 +27°C° 0 mm 4 m/S 653 mmHg 34%
    10:00 +29°C° 0 mm 4 m/S 654 mmHg 29%
    11:00 +30°C° 0 mm 5 m/S 654 mmHg 29%
    12:00 +30°C° 0 mm 5 m/S 654 mmHg 28%
    13:00 +30°C° 0 mm 5 m/S 654 mmHg 27%
    14:00 +30°C° 0 mm 5 m/S 653 mmHg 29%
    15:00 +29°C° 0 mm 4 m/S 653 mmHg 30%
    16:00 +29°C° 0 mm 4 m/S 653 mmHg 31%
    17:00 +26°C° 0 mm 3 m/S 653 mmHg 41%
    18:00 +22°C° 0 mm 3 m/S 652 mmHg 51%
    19:00 +19°C° 0 mm 2 m/S 652 mmHg 60%
    20:00 +18°C° 0 mm 3 m/S 652 mmHg 62%
    21:00 +18°C° 0 mm 3 m/S 652 mmHg 63%
    22:00 +17°C° 0 mm 3 m/S 652 mmHg 64%
    23:00 +17°C° 0 mm 3 m/S 652 mmHg 62%

    30 Juni, Freitag

    Zeit Temperatur Niederschläge Wind Luftdruck Luftfeuchtigkeit
    00:00 +16°C° 0 mm 3 m/S 652 mmHg 61%
    01:00 +16°C° 0 mm 3 m/S 652 mmHg 59%
    02:00 +16°C° 0 mm 2 m/S 652 mmHg 57%
    03:00 +16°C° 0 mm 2 m/S 652 mmHg 55%
    04:00 +16°C° 0 mm 2 m/S 652 mmHg 53%
    05:00 +18°C° 0 mm 2 m/S 653 mmHg 48%
    06:00 +21°C° 0 mm 2 m/S 654 mmHg 43%
    07:00 +25°C° 0 mm 1 m/S 655 mmHg 39%
    08:00 +26°C° 0 mm 2 m/S 655 mmHg 35%
    09:00 +28°C° 0 mm 2 m/S 656 mmHg 32%
    10:00 +30°C° 0 mm 2 m/S 656 mmHg 28%
    11:00 +31°C° 0 mm 2 m/S 656 mmHg 27%
    12:00 +31°C° 0 mm 2 m/S 656 mmHg 27%
    13:00 +33°C° 0 mm 3 m/S 656 mmHg 26%
    14:00 +31°C° 0 mm 2 m/S 656 mmHg 27%
    15:00 +31°C° 0 mm 2 m/S 655 mmHg 29%
    16:00 +31°C° 0 mm 2 m/S 655 mmHg 30%
    17:00 +27°C° 0 mm 2 m/S 654 mmHg 41%
    18:00 +24°C° 0 mm 1 m/S 654 mmHg 51%
    19:00 +21°C° 0 mm 1 m/S 653 mmHg 61%
    20:00 +20°C° 0 mm 1 m/S 653 mmHg 63%
    21:00 +19°C° 0 mm 1 m/S 653 mmHg 65%
    22:00 +18°C° 0 mm 1 m/S 653 mmHg 67%
    23:00 +18°C° 0 mm 1 m/S 653 mmHg 66%

    1 Juli, Samstag

    Zeit Temperatur Niederschläge Wind Luftdruck Luftfeuchtigkeit
    00:00 +18°C° 0 mm 1 m/S 652 mmHg 64%
    01:00 +18°C° 0 mm 1 m/S 652 mmHg 63%
    02:00 +16°C° 0 mm 1 m/S 652 mmHg 61%
    03:00 +16°C° 0 mm 1 m/S 651 mmHg 59%
    04:00 +16°C° 0 mm 1 m/S 651 mmHg 57%
    05:00 +21°C° 0 mm 1 m/S 652 mmHg 48%
    06:00 +24°C° 0 mm 1 m/S 653 mmHg 40%
    07:00 +28°C° 0 mm 1 m/S 654 mmHg 31%
    08:00 +29°C° 0 mm 2 m/S 654 mmHg 27%
    09:00 +31°C° 0 mm 2 m/S 654 mmHg 22%
    10:00 +34°C° 0 mm 2 m/S 655 mmHg 18%
    11:00 +34°C° 0 mm 3 m/S 655 mmHg 18%
    12:00 +34°C° 0 mm 3 m/S 654 mmHg 18%
    13:00 +34°C° 0 mm 3 m/S 654 mmHg 18%
    14:00 +34°C° 0 mm 3 m/S 654 mmHg 19%
    15:00 +33°C° 0 mm 3 m/S 653 mmHg 20%
    16:00 +33°C° 0 mm 3 m/S 653 mmHg 21%
    17:00 +28°C° 0 mm 2 m/S 652 mmHg 30%
    18:00 +24°C° 0 mm 2 m/S 651 mmHg 39%
    19:00 +20°C° 0 mm 2 m/S 650 mmHg 49%
    20:00 +19°C° 0 mm 2 m/S 650 mmHg 51%
    21:00 +17°C° 0 mm 2 m/S 650 mmHg 54%
    22:00 +16°C° 0 mm 2 m/S 650 mmHg 57%
    23:00 +16°C° 0 mm 2 m/S 649 mmHg 56%
    Mehr zeigen